Regional Weather Roundup
Issued by NWS

Home | Current Version | Previous Version | Graphics & Text | Print | Product List | Glossary Off
Versions: 1 2 3 4 5 6 7 8 9 10 11 12 13 14 15 16 17 18 19 20 21 22 23 24 25 26 27 28 29 30 31 32 33 34 35 36 37 38 39 40 41 42 43 44 45 46 47 48 49 50

000
ASUS43 KDMX 180601
RWRIA

WEATHER ROUNDUP FOR IOWA
NATIONAL WEATHER SERVICE DES MOINES IA
1200 AM CST SAT NOV 18 2017

NOTE: "FAIR" INDICATES FEW OR NO CLOUDS BELOW 12,000 FEET WITH NO
SIGNIFICANT WEATHER AND/OR OBSTRUCTIONS TO VISIBILITY.

* - THESE STATIONS ARE NOT NWS STATIONS...THUS NOT UNDER NWS
QUALITY CONTROL.  THEY ALSO DO NOT REPORT WEATHER SUCH
AS PRECIPITATION OR FOG.

IAZ001>003-012>014-020>022-031>034-043>046-180700-
   NORTHWEST IOWA

CITY           SKY/WX    TMP DP  RH WIND       PRES   REMARKS
CARROLL *      MIX PCPN  41  39  93 N14       29.64R
CHEROKEE *     LGT RAIN  38  38  99 N8        29.67F WCI  32
DENISON *      CLOUDY    41  41 100 N10       29.65R
LE MARS *      CLOUDY    39  37  93 N8        29.68S WCI  34
ORANGE CITY *  CLOUDY    37  36  93 NE9       29.68S WCI  31
SHELDON *      CLOUDY    36  34  93 N12       29.67S WCI  27
SIOUX CITY     LGT RAIN  40  38  93 N9        29.68S WCI  34
6HR MIN TEMP:  40; 6HR MAX TEMP:  49; 6HR PCP:  0.06;

SPENCER        CLOUDY    38  35  89 N10       29.67S WCI  31
6HR MIN TEMP:  38; 6HR MAX TEMP:  46; 6HR PCP:  0.01;

STORM LAKE *   LGT RAIN  39  37  93 N16G23    29.66R WCI  30
$$

IAZ055>058-069>071-079>083-090>094-180700-
   SOUTHWEST IOWA

CITY           SKY/WX    TMP DP  RH WIND       PRES   REMARKS
ATLANTIC *     CLOUDY    46  46 100 N18       29.60R FOG
AUDUBON *      CLOUDY    43  41  93 N13       29.62F
CLARINDA *       N/A     52  52 100 N17G24      N/A
COUNCIL BLFS * CLOUDY    46  46 100 N21G29    29.58R
CRESTON *      CLOUDY    50  50 100 N14G20    29.56R FOG
HARLAN  *      LGT RAIN  45  43  93 N21       29.63F
LAMONI         FOG       53  53 100 N14       29.50S VSB 3/4
6HR MIN TEMP:  53; 6HR MAX TEMP:  54;

RED OAK *      LGT RAIN  50  50 100 N20G25    29.55F
SHENANDOAH *   CLOUDY    52  50  93 N16       29.54F
$$

IAZ047>049-059>061-072>074-084-180700-
   CENTRAL IOWA

CITY           SKY/WX    TMP DP  RH WIND       PRES   REMARKS
AMES           CLOUDY    44  44 100 N16       29.58R FOG
6HR MIN TEMP:  44; 6HR MAX TEMP:  46; 6HR PCP: TRACE;

ANKENY *       CLOUDY    45  45 100 N17G24    29.57R FOG
BOONE *        CLOUDY    43  43 100 N15       29.59R FOG
CHARITON *     FOG       50  50 100 N10       29.52R VSB 1/4
DES MOINES     CLOUDY    46  45  96 N14       29.56R FOG
6HR MIN TEMP:  46; 6HR MAX TEMP:  51; 6HR PCP: TRACE;

GRINNELL*      CLOUDY    42  42  97 N10       29.54F FOG
KNOXVILLE *    FOG       46  46 100 N10       29.51S VSB 1/4
MARSHALLTOWN   FOG       41  41 100 N12       29.57S VSB 3/4
6HR MIN TEMP:  41; 6HR MAX TEMP:  44;

NEWTON *       FOG       43  43 100 N14       29.54F VSB 1
PELLA *        CLOUDY    46  45  98 NE7       29.54F FOG
PERRY *        CLOUDY    45  44  98 N13       29.61R FOG
$$

IAZ004>006-015-016-023>025-035-036-180700-
   NORTH CENTRAL IOWA

CITY           SKY/WX    TMP DP  RH WIND       PRES   REMARKS
ALGONA *       LGT RAIN  37  37 100 N14G20    29.66R WCI  29
CLARION *      CLOUDY    39  39 100 N15       29.61R WCI  31
ESTHERVILLE    CLOUDY    36  36 100 N9        29.67R WCI  29
6HR MIN TEMP:  36; 6HR MAX TEMP:  41; 6HR PCP:  0.02;

FORT DODGE *   LGT RAIN  40  38  93 NW6       29.67R
MASON CITY     CLOUDY    37  36  96 N13       29.63S WCI  29
6HR MIN TEMP:  37; 6HR MAX TEMP:  40; 6HR PCP:  0.01;

FOREST CITY *  DRIZZLE   37  37 100 N9        29.64R WCI  31
WEBSTER CITY * CLOUDY    41  41 100 N13       29.60R FOG
IOWA FALLS *   CLOUDY    41  41  98 N12       29.58F FOG
$$

IAZ007>011-017>019-026>030-037>042-050>054-066-180700-
   NORTHEAST IOWA

CITY           SKY/WX    TMP DP  RH WIND       PRES   REMARKS
CEDAR RAPIDS   FOG       42  42 100 NE8       29.54F VSB 1
6HR MIN TEMP:  42; 6HR MAX TEMP:  44; 6HR PCP:  0.02;

CHARLES CITY * MIX PCPN  39  39 100 N9        29.60S WCI  33
CLINTON *      LGT RAIN  43  42  97 NE8       29.56S FOG
DECORAH *      CLOUDY    37  37 100 N8        29.58F FOG     WCI  31
DUBUQUE        FOG       39  39 100 N7        29.57R VSB 1/4 WCI  34
6HR MIN TEMP:  39; 6HR MAX TEMP:  40; 6HR PCP:  0.05;

MONTICELLO *   CLOUDY    41  41 100 N5        29.57S FOG
OELWEIN *      CLOUDY    39  39 100 N7        29.59R FOG     WCI  34
WATERLOO       CLOUDY    39  39 100 N12       29.58R FOG     WCI  32
6HR MIN TEMP:  39; 6HR MAX TEMP:  40;

$$

IAZ064-065-067-068-078-180700-
   EAST CENTRAL IOWA

CITY           SKY/WX    TMP DP  RH WIND       PRES   REMARKS
DAVENPORT      CLOUDY    44  43  96 N8        29.57S FOG
6HR MIN TEMP:  44; 6HR MAX TEMP:  47; 6HR PCP:  0.01;

IOWA CITY      CLOUDY    46  44  93 NE5       29.56F FOG
6HR MIN TEMP:  45; 6HR MAX TEMP:  47; 6HR PCP:  0.01;

MT. PLEASANT * CLOUDY    48  48  98 N6        29.52S FOG
MUSCATINE *    CLOUDY    46  45  93 N8        29.54F FOG
QUAD CITIES    CLOUDY    51  46  83 N3        29.53S
6HR MIN TEMP:  46; 6HR MAX TEMP:  52;

$$

IAZ062-063-075>077-085>089-095>099-180700-
   SOUTHEAST IOWA

CITY           SKY/WX    TMP DP  RH WIND       PRES   REMARKS
BURLINGTON     CLOUDY    52  50  93 S5        29.50F
6HR MIN TEMP:  48; 6HR MAX TEMP:  53;

FAIRFIELD *    CLOUDY    48  46  93 N13       29.51S
FORT MADISON * CLOUDY    52  50  93 NE5       29.51F
KEOKUK *       LGT RAIN  52  50  93 N6        29.49F
OSKALOOSA *    CLOUDY    46  45  95 N10       29.51F FOG
OTTUMWA        CLOUDY    49  46  90 NE9       29.50F
6HR MIN TEMP:  48; 6HR MAX TEMP:  49;

WASHINGTON *   CLOUDY    46  46 100 N10       29.54S FOG
$$

ABBREVIATIONS USED IN REMARKS
   TC - TEMPERATURES IN CELSIUS
  WCI - WIND CHILL INDEX
   HX - HEAT INDEX
  VSB - VISIBILITY
$$





USA.gov is the U.S. government's official web portal to all federal, state and local government web resources and services.